Regional Weather Roundup
Issued by NWS

Home | Current Version | Previous Version | Text Only | Print | Product List | Glossary On
Versions: 1 2 3 4 5 6 7 8 9 10 11 12 13 14 15 16 17 18 19 20 21 22 23 24 25 26 27 28 29 30 31 32 33 34 35 36 37 38 39 40 41 42 43 44 45 46 47 48 49 50
000
ASUS43 KTOP 221908
RWRKS

WEATHER ROUNDUP FOR KANSAS
NATIONAL WEATHER SERVICE GOODLAND KS
200 PM CDT WED OCT 22 2014

NOTE:  "FAIR" INDICATES FEW OR NO CLOUDS BELOW 12,000 FEET WITH NO
SIGNIFICANT WEATHER AND/OR OBSTRUCTIONS TO VISIBILITY.

KSZ001>006-013>018-027>032-041>047-222000-
NORTHWEST KANSAS

CITY           SKY/WX    TMP DP  RH WIND       PRES   REMARKS
GOODLAND       SUNNY     72  46  39 N16       30.04F
HAYS           CLOUDY    70  55  60 S21G29    29.99F
HILL CITY      CLOUDY    73  56  54 S14G20    29.99F
RUSSELL        CLOUDY    75  53  46 S20G31    29.99F
$$

KSZ061>065-074>080-084>089-222000-
SOUTHWEST KANSAS

CITY           SKY/WX    TMP DP  RH WIND       PRES   REMARKS
DODGE CITY     CLOUDY    68  55  63 S22G32    30.04F
ELKHART          N/A     73  53  49 SW8         N/A
GARDEN CITY    CLOUDY    72  55  55 S25G32    29.99F
GREAT BEND     PTSUNNY   77  52  41 S28G35    30.02F
LIBERAL        CLOUDY    68  55  64 S23G31    30.05F
PRATT          PTSUNNY   73  48  40 S21G28    30.06F
$$

KSZ066>073-081>083-090>101-222000-
SOUTHEAST KANSAS

CITY           SKY/WX    TMP DP  RH WIND       PRES   REMARKS
CHANUTE        SUNNY     76  62  62 S13       30.12F
COFFEYVILLE    MOSUNNY   77  62  59 S8        30.11F
HUTCHINSON     MOSUNNY   79  51  37 S22G31    30.06F
MEDICINE LODGE   N/A     80  51  36 S23G32    30.04F
NEWTON         MOSUNNY   77  52  41 S18G30    30.10F
PARSONS        SUNNY     77  62  59 VRB7      30.13F
WICHITA INTL   PTSUNNY   78  55  44 S21G31    30.07F
WICHITA JABRA  MOSUNNY   76  56  49 S17G29    30.08F
WICHITA MCCONL MOSUNNY   77  56  48 S22       30.09F
WINFIELD       MOSUNNY   77  59  53 S21G26    30.11F
$$

KSZ007>012-019>026-033>040-048>060-102>105-222000-
NORTHEAST KANSAS

CITY           SKY/WX    TMP DP  RH WIND       PRES   REMARKS
CONCORDIA      SUNNY     77  54  44 S26G33    30.01F
EMPORIA        MOSUNNY   77  56  48 S17G23    30.09F
LAWRENCE       SUNNY     73  55  53 S8        30.12F
MANHATTAN      MOSUNNY   80  54  40 S17G29    30.04F
MARYSVILLE     MOSUNNY   77  55  47 S18G28    30.03F
OLATHE IND     SUNNY     71  55  56 SE9       30.14F
OLATHE EXE     SUNNY     69  54  58 SE10      30.13F
SALINA         SUNNY     79  53  40 S21G33    30.04F
TOPEKA BILLARD SUNNY     77  58  51 S9        30.10F
TOPEKA FORBES  SUNNY     77  58  51 S10G18    30.09F
$$



USA.gov is the U.S. government's official web portal to all federal, state and local government web resources and services.